Wind_Speed
7 7 6 6 7 7 6 6 6 6 6 5 5 4 3 3 3 4 4 4 4 4 3 3 3 3 3 4 4 5 6 5 5 5 5 5 5 6 6 5 5 6 6
8 7 7 7 7 7 7 7 7 7 7 6 5 5 4 4 4 4 4 4 4 4 4 4 4 4 4 4 5 5 6 6 6 6 6 6 6 6 6 6 6 7 7
9 8 8 8 8 8 8 8 8 8 8 7 6 6 6 5 5 5 5 5 5 5 5 5 5 5 5 5 5 5 6 6 6 7 7 7 6 6 7 7 7 7 7
9 9 9 9 9 9 9 9 8 9 9 8 7 7 7 7 6 7 6 6 6 6 6 6 6 6 6 5 5 6 6 7 7 7 8 8 8 7 7 7 8 7 7
10 10 10 10 9 9 9 9 9 9 10 9 8 8 8 8 8 8 8 7 7 7 7 7 7 7 6 6 6 7 7 6 7 8 8 9 9 7 7 7 8 8 7
11 10 11 11 10 10 10 10 10 10 9 9 9 9 9 9 9 9 8 8 8 8 8 8 8 7 7 7 7 8 8 8 8 8 9 8 8 8 8 8 9 9 8
12 11 11 11 11 11 11 10 10 11 11 10 10 9 9 9 9 9 9 9 9 9 8 8 9 9 9 9 9 9 8 8 9 8 9 8 8 8 9 9 8 9 9
12 12 12 11 12 12 12 12 12 12 12 11 10 10 10 9 9 9 9 9 9 9 9 9 9 9 10 10 10 10 9 9 9 9 9 9 9 8 9 9 9 9 9
13 13 13 13 13 13 13 13 12 12 12 12 11 10 10 11 11 10 10 10 10 10 10 10 9 10 10 10 11 10 10 10 10 9 10 10 9 9 9 10 10 10 10
13 13 13 13 14 14 13 13 13 12 12 12 12 11 12 12 12 11 11 11 11 11 11 10 10 10 11 11 12 12 12 11 11 10 10 10 10 10 9 10 11 11 11
15 15 14 15 15 15 14 13 13 12 12 13 13 13 13 13 13 13 13 13 12 12 12 12 11 12 12 12 13 13 13 12 12 11 12 11 11 10 10 10 10 11 11
16 16 16 16 16 14 13 13 12 12 13 13 14 14 14 14 14 14 14 13 13 14 14 14 14 14 14 14 13 13 13 13 13 13 12 12 12 12 11 11 10 11 12
17 17 17 17 17 16 15 14 13 13 13 14 15 15 15 15 14 14 14 14 14 14 15 15 15 15 15 15 14 14 14 14 13 13 13 13 13 13 13 13 12 12 13
18 18 18 18 18 17 16 15 15 15 15 15 16 16 16 15 14 15 15 15 15 15 15 15 15 16 16 15 15 16 15 14 13 13 14 14 14 14 14 14 14 14 14
18 19 19 18 18 17 17 16 16 16 16 16 16 16 16 15 15 16 16 16 16 16 16 16 16 16 16 16 16 16 16 15 15 15 15 15 15 15 15 15 16 16 16
19 19 20 19 19 18 17 18 18 17 17 17 17 17 16 16 16 16 16 16 16 16 16 16 16 16 17 17 17 17 17 16 15 16 16 17 18 17 17 17 17 18 18
19 20 20 19 19 18 17 18 18 19 18 18 18 17 17 17 17 16 16 17 17 17 16 16 16 17 17 17 18 18 18 17 17 18 18 18 18 18 19 19 19 19 19
18 19 19 19 18 18 17 17 19 19 19 19 19 18 18 19 18 17 17 17 17 17 18 18 18 18 17 18 19 19 19 19 19 20 20 20 20 20 20 20 20 20 21
18 19 19 18 19 18 18 18 18 19 19 19 18 19 19 19 19 18 18 18 18 19 19 19 19 19 19 19 20 20 20 21 21 22 21 21 21 21 21 22 22 22 22
18 19 19 19 19 19 18 18 19 20 20 20 20 19 19 19 19 19 19 19 19 19 20 20 21 21 21 21 22 21 21 21 22 23 23 22 21 22 22 23 23 23 24
19 19 20 20 20 19 18 19 20 20 20 20 20 19 19 19 20 21 21 21 21 20 20 21 22 22 22 23 23 22 22 21 22 23 24 23 23 23 23 23 24 25 25
19 20 20 21 21 20 19 20 20 20 20 20 20 20 20 21 22 23 23 23 23 22 22 22 22 22 23 24 24 24 23 22 23 23 25 25 25 24 24 23 24 25 26
20 21 21 21 21 20 20 21 21 21 21 21 20 21 22 22 23 23 24 24 24 23 22 22 22 22 22 23 24 24 24 24 24 25 25 26 26 26 25 25 24 25 27
21 21 20 21 22 21 21 22 22 22 22 22 22 23 23 23 24 24 25 24 24 23 23 23 22 23 23 23 24 24 25 25 25 25 25 26 27 26 26 26 26 26 26
21 21 21 22 22 21 22 23 23 23 22 23 23 23 23 23 24 25 25 24 24 24 24 24 23 23 24 24 25 25 26 26 26 26 26 26 27 27 27 27 27 27 27
22 22 22 22 22 22 22 23 24 23 23 23 23 23 23 24 24 25 25 24 24 24 24 25 25 25 26 26 26 26 26 26 27 27 27 28 28 28 28 28 28 28 28
Wind_Direction
331 327 331 326 319 315 308 305 301 298 296 290 287 279 277 274 266 268 275 275 273 267 263 261 258 244 234 240 242 229 224 231 227 227 228 224 214 207 205 213 217 218 216
324 319 321 320 314 308 304 307 303 296 293 286 280 274 273 272 268 268 268 268 265 265 269 262 256 250 242 243 239 231 224 227 223 225 233 227 215 207 208 213 219 225 224
318 313 316 315 311 307 304 303 301 293 288 281 276 275 272 273 271 269 266 268 263 261 263 260 255 254 248 246 244 234 230 230 237 229 237 233 230 221 220 219 225 227 227
316 314 312 309 308 308 305 301 297 292 289 280 277 276 271 272 278 273 266 265 265 265 263 256 253 255 255 252 249 236 233 237 244 237 244 244 237 227 221 222 230 231 234
313 311 308 305 304 303 301 299 298 295 292 286 280 277 276 276 275 275 272 268 268 271 268 256 253 255 255 254 253 246 234 241 240 239 239 237 229 226 229 231 234 238 241
310 309 306 303 300 300 297 297 296 295 289 283 279 280 279 279 279 276 272 270 271 272 265 257 258 258 254 252 251 249 242 239 242 243 241 238 235 234 237 237 240 242 244
311 309 307 302 297 297 295 292 293 294 289 285 280 281 279 277 278 280 273 269 272 272 264 261 262 259 256 251 247 246 249 251 249 249 247 246 247 237 232 234 240 239 243
312 312 308 303 300 295 292 291 288 289 289 288 285 280 284 281 280 281 275 267 269 271 270 267 265 263 259 253 249 246 247 252 255 251 248 250 250 240 234 237 242 244 248
313 313 311 305 303 300 293 289 287 285 286 286 285 284 282 282 281 279 274 268 267 268 269 267 265 264 258 256 252 249 251 250 253 255 252 250 249 245 242 243 245 248 247
316 317 315 311 311 306 297 291 289 285 285 286 286 284 284 284 282 278 273 269 269 269 270 270 266 264 260 258 256 253 252 253 254 255 255 252 251 253 250 247 251 252 253
317 317 315 312 311 307 301 294 292 288 286 285 286 285 284 282 281 279 273 268 267 269 270 269 268 269 264 259 258 255 252 254 255 258 256 254 253 252 253 251 253 252 254
314 314 313 314 311 309 305 301 297 291 289 287 287 287 286 283 279 278 273 271 267 268 270 269 268 268 264 259 257 255 254 255 257 259 256 253 254 255 254 253 255 254 254
311 311 311 312 309 307 305 302 299 296 293 290 290 288 287 285 280 277 275 272 271 270 271 272 269 266 263 260 257 255 254 254 258 259 259 258 257 255 255 256 256 256 254
308 309 310 308 307 304 301 299 297 298 297 292 289 287 288 287 281 277 275 274 273 271 271 271 271 267 263 260 258 256 254 255 257 261 261 261 260 257 257 258 258 258 258
306 307 308 307 306 304 299 296 295 296 298 293 291 290 290 290 287 282 277 274 273 270 268 268 270 268 262 260 259 260 258 259 255 255 257 260 261 261 260 258 258 259 260
303 304 304 304 304 301 297 294 292 292 293 292 292 291 291 292 291 283 279 275 272 271 270 267 268 267 264 261 260 260 260 262 262 262 261 260 260 261 262 259 257 259 261
302 303 302 302 302 300 298 294 291 291 291 292 294 293 291 293 291 285 281 277 275 272 271 269 269 268 264 261 261 260 260 261 263 262 261 259 260 261 262 260 260 261 263
301 303 303 300 300 302 298 295 294 292 291 291 293 294 291 290 288 287 284 281 277 274 274 272 268 266 264 262 262 260 261 261 259 261 261 260 261 261 262 262 264 265 265
303 303 304 302 300 301 299 297 296 294 293 293 294 294 293 291 288 287 285 283 279 275 273 271 267 265 264 263 264 262 260 260 260 261 261 262 264 265 263 262 264 265 265
303 303 304 303 301 299 297 297 296 295 293 293 293 293 290 289 289 288 288 284 282 279 276 274 270 266 265 267 267 264 262 263 263 263 263 263 265 267 266 263 263 264 264
302 303 304 305 304 301 300 298 296 294 293 293 292 292 291 292 291 290 289 287 284 282 280 277 272 268 267 269 269 268 266 266 266 265 263 263 265 266 267 266 264 263 263
302 303 304 304 303 302 300 300 298 294 292 291 290 290 292 292 292 291 289 289 285 283 280 276 273 270 269 269 269 268 267 266 266 266 263 262 264 265 266 269 267 265 265
302 301 303 304 303 301 300 301 300 297 293 292 291 290 290 292 293 292 291 291 287 282 279 276 274 270 268 269 270 269 268 267 267 266 266 264 265 266 267 269 270 267 266
300 300 300 302 302 302 301 302 301 300 298 294 291 291 290 291 292 292 291 290 286 281 278 276 273 270 269 269 269 270 271 270 269 267 266 265 265 265 266 268 268 267 267
299 300 300 300 300 301 301 301 301 301 298 295 294 292 292 293 292 290 291 290 288 283 279 277 274 272 270 270 271 271 271 272 271 271 269 268 266 265 265 266 267 266 266
296 297 298 296 296 298 298 299 301 301 300 297 294 292 292 291 291 290 290 289 286 283 278 277 276 273 271 271 271 271 270 271 270 270 269 269 267 265 266 267 268 268 267
Height
5892 5891 5890 5890 5889 5888 5888 5887 5886 5886 5885 5885 5884 5883 5883 5882 5882 5882 5882 5882 5882 5882 5882 5881 5882 5882 5882 5883 5883 5883 5883 5884 5886 5886 5887 5888 5888 5889 5890 5891 5892 5893 5894
5891 5890 5889 5889 5888 5887 5887 5886 5886 5885 5884 5884 5883 5882 5882 5882 5881 5881 5881 5881 5881 5881 5881 5881 5881 5881 5882 5882 5882 5883 5883 5884 5885 5886 5886 5887 5888 5889 5890 5890 5891 5892 5893
5890 5888 5888 5887 5887 5886 5886 5885 5884 5884 5883 5882 5882 5881 5881 5881 5880 5880 5880 5880 5880 5880 5880 5880 5880 5880 5881 5881 5881 5882 5882 5883 5884 5885 5885 5886 5887 5888 5889 5889 5890 5891 5892
5889 5887 5886 5886 5886 5885 5884 5883 5883 5882 5881 5881 5880 5880 5880 5879 5879 5879 5879 5879 5879 5879 5879 5879 5879 5879 5880 5880 5880 5881 5881 5882 5883 5883 5884 5885 5886 5887 5887 5888 5889 5890 5891
5888 5887 5886 5885 5884 5883 5882 5882 5881 5880 5880 5879 5879 5879 5878 5878 5877 5877 5877 5877 5877 5877 5877 5878 5878 5878 5879 5878 5879 5879 5880 5880 5881 5882 5883 5883 5885 5885 5886 5887 5889 5890 5890
5886 5885 5884 5883 5882 5881 5881 5880 5880 5879 5878 5878 5877 5877 5877 5876 5876 5875 5876 5876 5876 5876 5876 5876 5876 5877 5877 5877 5878 5878 5878 5879 5880 5881 5881 5882 5883 5884 5885 5886 5887 5888 5889
5884 5883 5883 5882 5881 5880 5879 5878 5878 5877 5876 5876 5875 5875 5875 5874 5873 5873 5873 5874 5874 5874 5874 5875 5875 5875 5876 5876 5876 5877 5877 5878 5878 5879 5880 5880 5881 5882 5883 5884 5886 5887 5888
5882 5881 5880 5880 5879 5878 5877 5876 5876 5875 5875 5874 5873 5873 5873 5872 5872 5872 5871 5872 5872 5872 5872 5873 5873 5873 5873 5874 5874 5875 5876 5876 5877 5878 5878 5879 5879 5880 5882 5883 5884 5885 5886
5880 5879 5878 5878 5877 5876 5875 5874 5873 5873 5873 5872 5871 5871 5871 5870 5870 5870 5869 5869 5870 5870 5870 5870 5871 5871 5871 5872 5872 5873 5874 5874 5875 5876 5877 5878 5878 5879 5880 5881 5882 5883 5884
5879 5877 5877 5876 5875 5874 5873 5872 5871 5871 5870 5870 5869 5869 5868 5868 5868 5867 5867 5867 5867 5867 5867 5868 5868 5868 5869 5870 5870 5871 5872 5872 5873 5874 5875 5876 5877 5878 5878 5879 5880 5881 5882
5877 5875 5875 5874 5872 5870 5869 5868 5868 5868 5868 5867 5867 5866 5866 5866 5865 5865 5864 5864 5864 5864 5865 5865 5865 5866 5866 5867 5868 5869 5869 5870 5871 5872 5873 5874 5875 5876 5876 5877 5878 5879 5880
5875 5873 5872 5871 5870 5868 5867 5866 5865 5865 5865 5865 5864 5864 5863 5863 5863 5862 5862 5861 5861 5861 5862 5862 5862 5862 5863 5864 5865 5866 5867 5867 5868 5868 5870 5871 5872 5873 5874 5875 5876 5877 5878
5873 5871 5870 5868 5867 5866 5865 5864 5863 5863 5862 5862 5862 5861 5861 5860 5859 5859 5859 5858 5858 5858 5859 5859 5859 5859 5860 5861 5862 5863 5864 5863 5864 5865 5867 5868 5870 5871 5871 5872 5873 5874 5875
5870 5869 5867 5866 5864 5863 5862 5862 5861 5860 5860 5859 5858 5858 5857 5857 5856 5856 5855 5855 5855 5855 5855 5856 5856 5856 5857 5858 5859 5860 5861 5861 5862 5863 5864 5866 5867 5868 5869 5869 5870 5871 5872
5867 5866 5864 5863 5862 5860 5859 5858 5858 5857 5856 5856 5855 5854 5854 5853 5853 5852 5852 5852 5852 5852 5852 5852 5852 5853 5854 5854 5855 5856 5858 5858 5859 5861 5861 5862 5864 5864 5865 5866 5867 5868 5869
5864 5863 5861 5860 5859 5857 5856 5855 5854 5854 5853 5853 5852 5851 5850 5849 5849 5848 5848 5848 5848 5847 5847 5847 5848 5849 5850 5851 5851 5852 5853 5854 5855 5856 5857 5858 5860 5861 5861 5862 5863 5864 5865
5861 5860 5858 5857 5855 5854 5853 5852 5851 5851 5850 5849 5848 5848 5847 5846 5845 5844 5844 5844 5844 5844 5843 5844 5845 5845 5846 5847 5847 5848 5849 5850 5851 5851 5852 5854 5855 5856 5857 5858 5859 5860 5861
5858 5857 5855 5853 5852 5851 5850 5849 5848 5847 5846 5846 5845 5844 5843 5842 5841 5841 5840 5840 5840 5840 5840 5840 5841 5841 5842 5843 5843 5844 5845 5846 5847 5848 5848 5849 5850 5851 5852 5853 5854 5855 5856
5855 5853 5852 5850 5849 5847 5847 5846 5845 5844 5843 5842 5841 5840 5839 5838 5837 5836 5836 5836 5836 5836 5836 5836 5837 5837 5838 5838 5839 5840 5841 5842 5843 5843 5844 5844 5845 5847 5848 5848 5849 5850 5851
5851 5850 5849 5847 5846 5844 5843 5842 5841 5840 5839 5838 5837 5836 5835 5834 5833 5832 5832 5832 5831 5831 5831 5831 5831 5832 5833 5833 5834 5835 5836 5837 5837 5838 5839 5840 5841 5841 5842 5843 5844 5844 5845
5848 5847 5846 5844 5842 5841 5839 5838 5837 5836 5834 5833 5832 5831 5830 5829 5828 5828 5827 5827 5826 5826 5826 5826 5826 5827 5827 5828 5829 5829 5830 5831 5832 5833 5833 5834 5835 5836 5836 5836 5837 5838 5839
5845 5844 5842 5841 5839 5837 5836 5834 5833 5831 5829 5828 5827 5827 5826 5825 5824 5823 5822 5821 5821 5820 5820 5820 5820 5821 5822 5822 5823 5823 5824 5826 5826 5827 5827 5828 5829 5830 5830 5830 5831 5831 5832
5841 5840 5839 5837 5835 5833 5832 5830 5828 5826 5825 5824 5823 5822 5821 5820 5818 5817 5816 5815 5815 5814 5814 5814 5814 5815 5816 5816 5816 5817 5817 5819 5820 5821 5821 5822 5822 5823 5824 5824 5824 5825 5825
5838 5836 5835 5833 5831 5829 5828 5826 5824 5822 5821 5820 5818 5817 5816 5814 5813 5811 5810 5809 5809 5808 5808 5808 5809 5809 5810 5810 5810 5811 5811 5811 5812 5813 5814 5815 5815 5816 5817 5817 5817 5818 5818
5833 5832 5830 5829 5827 5825 5823 5821 5819 5818 5816 5814 5813 5811 5810 5809 5807 5806 5805 5804 5803 5803 5802 5802 5803 5803 5803 5804 5804 5804 5804 5804 5805 5805 5806 5807 5808 5808 5809 5810 5809 5810 5811
5829 5827 5826 5824 5822 5821 5819 5817 5815 5813 5811 5809 5808 5806 5805 5804 5802 5801 5800 5799 5798 5797 5797 5796 5796 5797 5797 5797 5797 5797 5798 5798 5798 5798 5798 5799 5799 5800 5801 5802 5803 5803 5804